Location: Chandolas
(44.4033°N, 4.2533°E)
Time: 10:48:29
(UTC+00:00)

Cosmos 2278 - Pass Details

Date: 15 November 2019
Orbit: 838 x 855 km, 71.1° (Epoch: 05 December)

Event Time Altitude Azimuth Distance (km) Brightness Sun altitude
Exits shadow 04:28:59 53° 265° (W) 1,049 3.8 -23.1°
Maximum altitude 04:29:20 53° 251° (WSW) 1,039 3.8 -23.0°
Drops below altitude 10° 04:34:51 10° 176° (S) 2,476 6.2 -22.0°
Sets 04:37:20 0° 171° (S) 3,406 7.0 -21.6°
